User: anonymous   Login
Location: Unspecified
(0.0000°N, 0.0000°E)
Time: 05:51:01
(UTC+00:00)
Language:

HO-68 - Orbit

View from above orbital plane
View from above orbital plane
View from above satellite
View from above satellite

Ground track
Ground track

The orbit data is extracted from the following two-line orbital elements,

1 36122U 09072B   15090.79341409 -.00000060  00000-0 -43517-4 0  9996
2 36122 100.2047 138.3298 0006997 299.1057 060.9353 13.16325201254278
Epoch (UTC): 31 March 2015 19:02:30
Eccentricity: 0.0006997
inclination: 100.2047°
perigee height: 1193 km
apogee height: 1204 km
right ascension of ascending node: 138.3298°
argument of perigee: 299.1057°
revolutions per day: 13.16325201
mean anomaly at epoch: 60.9353°
orbit number at epoch: 25427

The dashed part of the orbit path shows where the satellite is in the earth's shadow,  

DLR